SCP
0 0 0 0 0 0 0 0 0 0 0 0 0 0 0 0 0 0 0 0 0 0 0 0 0 0 0 0 0 0 0 0 0 0 0 0 0 0 0 0 0 0 0 0 0 1 1 1 1
0 0 0 0 0 0 0 0 0 0 0 0 0 0 0 0 0 0 0 0 0 0 0 0 0 0 0 0 0 0 0 0 0 0 0 0 0 0 0 0 0 0 0 0 0 0 1 1 1
0 0 0 0 0 0 0 0 0 0 0 0 0 0 0 0 0 0 0 0 0 0 0 0 0 0 0 0 0 0 0 0 0 0 0 0 0 0 0 0 0 0 0 0 0 0 0 1 1
0 0 0 0 0 0 0 0 0 0 0 0 0 0 0 0 0 0 0 0 0 0 0 0 0 0 0 0 0 0 0 0 0 0 0 0 0 0 0 0 1 1 0 0 0 0 0 0 0
0 0 0 0 0 0 0 0 0 0 0 0 0 0 0 0 0 0 0 0 0 0 0 0 0 0 0 0 0 0 0 0 0 0 0 0 0 1 0 0 0 1 0 0 0 0 0 0 0
0 0 0 0 0 0 0 0 0 0 0 0 0 0 0 0 0 0 0 0 0 0 0 0 0 0 0 0 0 0 0 0 0 0 0 0 0 1 1 0 0 0 0 0 0 0 0 0 0
0 0 0 0 0 0 0 0 0 0 0 0 0 0 0 0 0 0 0 0 0 0 0 0 0 0 0 0 0 0 0 0 0 0 0 0 0 1 1 0 0 0 0 0 0 0 0 0 0
0 0 0 0 0 0 0 0 0 0 0 0 0 0 0 0 0 0 0 0 0 0 0 0 0 0 0 0 0 0 0 0 0 0 0 0 0 0 0 0 0 0 0 0 0 0 0 0 0
0 0 0 0 0 0 0 0 0 0 0 0 0 0 0 0 0 1 1 0 0 0 0 0 0 0 0 0 0 0 0 0 0 0 0 0 0 0 0 0 0 0 0 0 0 0 0 0 0
0 0 0 0 0 0 0 0 0 0 0 0 0 0 0 0 0 1 1 0 0 0 0 0 0 0 0 0 0 0 0 0 0 0 0 0 0 0 0 0 0 0 0 0 0 0 0 0 0
0 0 0 0 0 0 0 0 0 0 0 0 0 0 0 0 0 1 1 0 0 1 0 0 0 0 0 0 0 0 0 0 0 0 0 0 0 0 0 0 0 0 0 0 0 0 0 0 0
0 0 0 0 0 0 0 0 0 0 0 0 0 0 0 0 0 0 0 0 1 1 1 0 0 0 0 0 0 0 0 0 0 0 0 0 0 0 0 0 0 0 0 0 0 0 0 0 0
0 0 0 0 0 0 0 0 0 0 0 0 1 1 0 0 0 0 0 0 1 1 1 1 1 1 1 0 0 0 0 0 0 0 0 0 0 0 0 0 0 0 0 0 0 0 0 0 0
0 0 0 0 0 0 0 0 0 0 0 0 1 1 1 0 0 0 0 0 1 1 1 1 1 1 1 1 0 0 0 0 0 0 0 0 0 0 0 0 0 0 0 0 0 0 0 0 0
0 0 0 0 0 0 0 0 0 0 0 0 0 1 0 0 0 0 0 0 1 1 1 1 1 1 1 1 1 0 0 0 0 0 0 0 0 0 0 0 0 0 0 0 0 0 0 0 0
0 0 0 0 0 0 0 0 0 0 0 0 0 0 0 0 0 0 0 1 1 1 1 1 1 1 1 1 1 0 0 0 0 0 0 0 0 0 0 0 0 0 0 0 0 0 0 0 0
0 0 0 0 0 0 0 0 0 0 0 0 0 0 0 0 0 0 1 1 2 2 1 1 1 1 1 1 1 1 0 0 0 0 0 0 0 0 0 0 0 0 0 0 0 0 0 0 0
0 0 0 0 0 0 0 0 0 0 0 0 0 0 0 0 0 0 1 1 2 2 2 2 1 1 1 1 1 1 1 1 0 0 0 0 0 0 0 0 0 0 0 0 0 0 0 0 0
0 0 0 0 0 0 0 0 0 0 0 0 0 0 0 0 0 1 1 2 2 2 2 2 2 2 1 1 1 1 1 1 0 0 0 0 0 0 0 0 0 0 0 0 0 0 0 0 0
0 0 0 0 0 0 0 0 0 0 0 0 0 0 0 0 1 2 2 3 3 3 2 2 2 2 2 2 1 1 1 1 0 0 0 0 0 0 0 0 0 0 0 0 0 0 0 0 0
0 0 0 0 0 0 0 0 0 0 0 0 0 0 0 1 3 4 4 4 4 4 3 3 3 2 2 2 2 1 1 1 0 0 0 0 0 0 0 0 0 0 0 0 0 0 0 0 0
0 0 0 0 0 0 0 0 0 0 0 0 0 0 0 2 4 6 6 6 6 5 4 3 3 2 2 2 2 1 1 1 0 0 0 0 0 1 0 0 0 0 0 0 0 0 0 0 0
0 0 0 0 0 0 0 0 0 0 0 0 0 0 1 2 5 6 7 7 7 5 4 3 3 2 2 2 1 1 1 1 0 0 0 0 0 0 0 0 0 0 0 0 0 0 0 0 0
0 0 0 0 0 0 0 0 0 0 0 0 0 0 1 2 4 5 6 7 6 6 4 3 2 2 1 1 1 1 1 1 0 0 0 0 0 0 0 0 0 0 0 0 0 0 0 0 0
0 0 0 0 0 0 0 0 0 0 0 0 0 0 1 2 3 4 5 5 5 5 4 3 2 1 1 1 1 1 1 1 0 0 0 0 0 0 0 0 0 0 0 0 0 0 0 0 0
0 0 0 0 0 0 0 0 0 0 0 0 0 0 1 1 2 3 3 3 3 4 4 2 1 1 0 0 0 0 0 0 0 0 0 0 0 0 0 0 0 0 0 0 0 0 0 0 0
0 0 0 0 0 0 0 0 0 0 0 0 0 0 1 1 1 2 2 2 2 2 2 1 1 0 0 0 0 0 0 0 0 0 0 0 0 0 0 0 0 0 0 0 0 0 0 0 0
0 0 0 0 0 0 0 0 0 0 0 0 0 0 0 1 1 1 1 1 1 1 1 1 0 0 0 0 0 0 0 0 0 0 0 0 0 0 0 0 0 0 0 0 0 0 0 0 0
0 0 0 0 0 0 0 0 0 0 0 0 0 0 0 0 0 0 1 1 1 1 0 0 0 0 1 1 1 1 0 0 0 0 0 0 0 0 0 0 0 0 0 0 0 0 0 0 0
0 0 0 0 0 0 0 0 0 0 0 0 0 0 0 0 0 0 0 0 0 0 0 0 0 0 1 1 1 1 1 0 0 0 0 0 0 0 0 0 0 0 0 0 0 0 0 0 0
Wind_Speed
6 4 2 3 5 5 0 2 3 0 2 3 7 11 8 5 4 4 4 12 13 14 11 13 15 13 12 12 12 12 12 11 11 11 12 12 12 12 12 12 12 12 12 13 12 13 12 11 10
3 2 3 4 5 3 1 3 3 1 5 8 7 7 6 4 2 7 7 14 15 14 11 11 16 14 13 12 12 12 12 12 12 12 12 12 12 12 12 11 11 11 13 13 12 13 13 11 11
4 2 5 4 3 1 2 5 5 2 8 8 5 4 5 6 6 7 9 17 15 13 11 12 17 15 13 12 12 12 13 13 13 13 12 12 12 13 12 11 10 12 12 12 12 12 13 11 10
2 5 5 5 3 4 4 5 4 3 4 4 6 5 4 4 6 6 15 17 15 12 10 12 17 15 14 13 12 12 13 13 13 13 13 13 12 13 13 11 11 12 11 11 11 10 10 10 10
4 5 6 4 5 6 6 3 4 3 4 4 5 5 3 2 9 14 16 14 14 10 9 10 16 15 13 12 13 13 13 13 13 12 12 13 12 12 12 11 11 11 11 10 9 8 7 7 7
5 5 5 2 7 8 7 4 1 5 7 6 7 6 3 5 10 14 14 12 12 12 9 8 14 14 12 12 12 12 13 13 13 13 12 12 12 12 12 11 10 9 9 9 9 7 5 5 6
5 5 5 3 6 7 5 2 5 6 7 7 9 7 5 6 9 13 13 11 11 11 9 6 7 9 11 12 12 13 14 14 13 13 12 12 12 11 11 11 10 9 9 9 8 6 4 3 5
5 6 4 3 5 7 5 4 3 6 4 8 7 10 8 9 10 12 12 10 9 8 8 7 6 6 6 7 12 13 14 13 13 12 12 12 12 11 12 10 9 10 10 9 7 6 4 2 3
5 5 3 6 5 6 4 3 1 4 5 4 4 6 10 15 13 13 9 6 7 8 6 7 6 6 6 6 9 11 13 13 11 10 12 10 5 6 7 9 10 10 10 9 7 6 4 2 2
5 3 6 6 5 4 4 2 1 4 5 4 6 8 12 12 13 15 12 11 10 10 10 8 8 7 7 6 5 4 5 6 5 4 6 4 4 4 7 10 11 10 9 8 7 5 3 1 2
5 4 3 5 7 5 3 3 1 4 4 7 12 15 13 11 13 15 14 14 14 14 12 11 9 8 7 5 5 3 3 4 4 5 5 4 3 3 4 3 5 5 6 3 3 0 1 1 2
3 5 4 5 5 3 4 3 1 3 5 13 19 20 17 14 15 16 15 14 11 12 13 12 11 10 8 6 5 5 4 4 4 5 6 4 3 3 3 3 3 2 2 2 1 1 1 4 5
2 3 3 1 2 3 6 4 3 3 2 13 18 18 18 18 16 14 13 11 11 13 13 13 12 11 8 7 5 5 4 4 4 4 5 6 5 5 4 3 3 3 2 2 2 2 3 6 5
2 2 4 4 3 2 5 7 4 4 3 10 18 18 18 18 17 12 12 12 11 14 15 13 14 13 10 8 6 5 5 4 4 4 5 7 5 5 4 4 4 4 3 3 3 4 5 4 4
1 2 3 5 6 5 5 6 2 6 7 3 12 16 17 15 14 14 17 16 16 16 16 14 15 13 12 10 8 6 5 5 5 5 5 6 6 6 6 4 4 4 4 4 3 4 4 4 3
3 2 1 3 8 7 2 6 2 5 6 3 3 10 13 14 16 15 16 17 16 16 16 16 14 12 11 9 8 5 5 6 5 4 5 6 6 6 5 5 5 5 4 4 4 3 3 4 3
3 2 2 1 5 4 2 5 6 4 5 6 6 5 9 11 13 14 15 18 17 16 16 15 13 13 12 10 7 5 5 5 4 4 4 5 5 5 4 4 5 5 4 4 5 3 3 3 4
1 2 2 3 3 3 2 6 9 5 4 2 5 6 6 9 11 14 16 18 17 15 14 12 12 13 11 7 5 3 4 4 4 4 4 5 4 4 3 3 4 4 4 4 4 4 2 3 4
4 3 4 4 3 2 4 7 10 7 5 4 3 5 7 10 6 11 18 18 15 13 13 12 12 12 9 6 5 4 4 4 3 4 5 5 4 3 3 3 4 4 4 5 6 4 3 2 2
2 2 3 2 1 3 4 8 10 9 7 4 3 6 10 8 4 7 13 16 15 14 13 12 12 10 9 7 5 3 3 3 3 3 3 4 4 4 3 4 4 3 3 5 5 5 4 2 2
3 4 4 4 2 3 4 8 8 7 5 4 3 3 9 8 9 10 12 12 13 13 13 11 9 9 8 7 5 4 4 3 2 2 2 3 5 5 4 4 4 4 4 5 5 6 6 5 3
5 5 4 2 1 3 2 6 9 6 5 5 5 4 5 3 5 5 6 9 11 10 9 10 9 8 7 8 7 6 4 4 4 3 3 3 4 4 4 4 4 4 3 4 5 5 4 6 5
3 2 4 3 2 2 2 3 10 6 5 5 6 6 4 2 5 5 5 6 6 6 7 9 8 6 6 6 7 7 4 3 2 2 4 4 3 3 4 4 5 4 3 4 5 5 5 4 5
5 5 4 4 3 3 4 5 6 9 10 9 7 5 5 5 6 7 6 8 7 4 6 7 6 4 5 6 6 7 7 5 4 4 4 3 1 2 3 3 4 5 5 5 5 5 6 5 5
4 4 3 4 2 5 3 2 4 13 16 14 14 12 6 1 6 10 11 9 7 5 5 4 4 4 4 6 5 5 6 6 6 5 5 4 3 2 4 3 4 4 5 5 5 5 5 6 6
4 5 6 5 4 4 3 0 3 12 16 16 16 15 13 12 8 6 9 10 9 6 2 5 5 5 5 5 4 4 5 4 3 4 4 4 4 4 4 4 4 4 5 5 5 4 5 5 6
6 1 3 5 3 3 3 2 4 16 21 20 18 16 13 12 12 10 7 6 11 12 11 9 7 5 4 4 3 3 4 4 3 3 4 3 3 3 4 4 4 4 4 5 5 4 5 5 6
3 2 3 2 4 4 1 4 7 15 17 19 17 13 10 8 9 10 8 5 3 4 5 6 6 5 4 3 3 2 4 5 4 3 5 5 4 4 5 4 3 3 3 4 4 3 4 5 5
8 6 4 1 1 3 2 3 5 8 11 15 16 12 9 5 4 6 2 7 7 4 4 6 6 5 5 5 3 3 4 4 4 3 4 5 4 5 5 5 4 4 4 4 4 4 4 4 4
3 4 3 1 1 0 3 4 7 8 11 14 15 13 11 7 3 4 7 10 9 6 4 5 6 6 5 4 3 3 2 2 3 4 4 4 4 5 5 5 5 5 5 4 4 4 4 4 4
Wind_Direction
296 297 107 67 51 48 82 244 172 64 356 42 83 96 102 106 133 161 152 157 146 153 161 162 157 154 148 141 137 131 131 131 128 125 123 122 119 114 111 108 104 102 101 100 98 96 93 93 94
310 304 101 57 66 63 258 242 148 170 115 115 90 91 88 73 97 124 128 156 150 157 160 162 162 160 156 151 146 140 132 128 124 124 126 124 120 116 114 110 109 108 107 104 101 100 97 93 91
294 37 74 57 42 210 211 232 198 167 122 132 98 69 96 126 132 146 152 151 152 158 160 166 164 164 162 159 152 149 139 132 127 126 129 127 121 119 114 111 108 109 109 106 102 99 100 98 92
26 42 53 60 333 274 241 218 212 147 98 79 100 66 59 137 161 149 146 150 152 158 162 171 163 164 166 162 155 153 145 137 134 133 135 132 128 126 121 120 115 113 113 109 104 98 95 96 95
64 66 51 15 298 278 273 226 155 151 107 93 95 84 45 68 123 134 148 153 152 153 161 169 160 162 166 162 159 159 154 145 142 141 141 140 136 130 126 125 123 120 121 117 108 99 92 87 85
65 63 73 319 295 291 283 292 83 83 104 118 105 105 109 120 130 145 153 154 149 149 153 161 159 160 165 162 160 160 157 152 150 146 144 143 138 132 130 128 130 128 130 129 120 112 101 81 65
103 103 143 205 283 284 275 296 120 123 140 155 131 115 136 149 144 149 152 146 144 149 150 150 154 159 165 164 163 160 158 157 153 151 148 140 137 137 134 133 137 134 136 138 138 138 126 77 51
117 104 129 212 261 277 289 314 160 131 133 131 133 141 165 177 148 146 146 143 147 149 152 152 152 150 150 161 165 160 160 159 155 154 150 144 144 144 141 138 147 146 146 148 156 162 147 112 68
91 89 175 212 226 262 292 300 260 109 99 110 146 157 159 152 139 143 142 134 150 156 157 157 157 153 148 157 167 161 161 160 157 158 155 144 137 140 139 151 161 155 153 156 167 178 174 154 43
93 144 218 213 209 247 293 293 318 80 82 63 69 93 130 140 144 154 157 158 167 172 173 171 168 162 159 165 152 150 149 152 150 150 145 137 146 157 155 169 171 169 166 169 179 192 206 109 28
136 194 240 251 228 241 291 298 263 124 128 163 148 146 153 153 156 164 171 174 178 176 175 177 172 168 169 159 151 150 146 149 154 157 154 151 152 158 151 164 176 179 176 179 191 190 295 187 137
171 228 221 251 231 216 261 281 238 183 187 173 160 159 165 172 173 173 178 181 177 176 179 178 173 171 172 160 160 159 158 163 167 174 168 151 151 160 165 167 178 189 188 192 142 55 3 117 124
202 262 285 248 228 244 275 272 243 256 200 160 161 166 176 183 186 182 181 175 164 177 183 178 172 171 170 161 166 168 170 172 177 175 171 161 164 173 175 177 187 198 202 198 149 136 108 108 114
217 264 295 316 334 296 263 261 242 283 326 162 170 180 187 191 189 181 181 180 168 175 182 178 175 172 168 170 174 176 173 174 177 178 174 170 176 182 180 189 203 203 200 199 170 158 135 124 122
239 283 325 17 5 344 304 253 238 347 341 219 193 193 195 199 193 187 186 184 177 175 178 177 178 174 172 174 180 179 178 178 182 185 183 173 173 180 184 191 203 209 195 179 154 146 130 122 118
311 294 278 21 358 333 319 234 247 339 13 2 244 213 204 203 201 195 184 181 178 172 175 180 179 173 175 176 181 176 181 183 183 182 190 183 175 176 176 178 189 189 170 149 144 146 134 128 127
353 312 282 338 350 345 29 268 287 307 23 22 349 285 230 206 200 194 181 179 177 176 176 178 170 169 177 177 180 175 173 172 166 174 194 198 184 178 163 173 180 175 163 151 150 146 149 144 144
326 358 324 286 300 331 316 282 292 305 319 342 4 342 279 227 200 186 177 177 177 176 175 173 164 170 172 167 160 144 146 157 167 178 191 197 193 182 160 165 174 171 167 154 139 140 149 156 158
180 220 255 254 231 260 267 276 284 293 296 302 351 3 329 281 245 178 172 174 171 171 172 171 166 171 165 156 155 155 169 172 183 191 189 188 189 177 155 148 158 178 183 167 145 132 143 144 128
192 260 272 264 266 288 282 277 274 260 246 254 321 342 325 288 236 183 166 168 170 172 174 172 169 166 164 162 155 152 154 172 185 177 182 187 179 165 169 161 157 178 173 158 157 144 139 150 155
227 219 231 239 321 1 326 295 279 276 254 255 262 297 299 267 198 180 164 164 168 172 172 165 155 150 149 141 123 103 92 84 102 162 193 201 190 184 179 171 154 162 171 182 177 164 152 158 175
242 225 178 141 64 306 323 292 287 288 296 264 242 237 266 253 169 154 145 153 162 167 151 138 135 138 141 138 140 146 148 157 182 180 189 206 199 194 187 177 156 156 169 189 194 185 171 155 165
208 121 112 113 128 316 257 245 288 314 301 271 242 229 228 179 138 135 129 122 107 121 127 123 121 128 137 140 144 139 134 147 151 151 178 198 200 200 197 184 161 158 175 194 200 198 184 166 166
98 73 61 54 74 296 236 201 306 350 329 324 315 287 228 196 165 132 112 105 99 110 112 110 121 136 135 132 134 139 145 153 152 158 175 193 195 204 205 188 170 167 181 194 200 202 193 184 170
48 79 15 342 331 254 252 189 30 355 357 355 346 339 331 169 148 128 116 105 98 91 87 105 146 154 148 145 147 152 157 164 175 180 182 180 185 209 217 196 184 176 188 196 194 197 202 192 182
286 161 171 216 237 286 319 140 75 5 8 11 14 11 21 29 36 81 119 124 117 111 130 210 190 176 164 161 168 161 159 166 186 194 185 190 194 205 202 192 192 188 189 195 196 199 204 200 198
340 316 186 171 211 246 305 7 9 6 6 1 6 14 23 30 36 36 54 121 149 166 192 206 188 183 181 182 188 204 190 177 183 196 189 184 184 178 160 162 176 185 187 192 191 201 206 203 205
357 332 54 129 194 200 330 36 1 355 350 343 347 353 358 24 53 44 20 346 278 189 170 167 178 188 191 191 195 189 170 161 161 162 164 168 175 166 159 174 194 204 194 179 178 188 208 212 209
356 14 19 104 204 152 146 62 8 339 337 330 329 334 334 342 66 94 56 287 271 252 189 175 183 183 181 176 163 142 138 150 161 170 174 174 179 177 180 190 208 222 209 187 173 174 183 213 232
44 8 346 40 312 125 126 97 3 347 339 330 328 332 331 316 276 196 194 238 258 254 228 203 198 193 188 168 140 147 157 164 188 203 198 188 196 200 196 189 194 206 209 205 198 196 194 212 232